STARLINK-33674, 63329

Orbit data source: Space-Track

STARLINK-33674, 63329 is a payload satellite owned by SpaceX/Seattle (US) in LEO that was launched on Tue, 18 Mar 2025 UTC via an FALCON 9 launch vehicle from the Air Force Eastern Test Range (AFETR). Payload-class satellites include a variety of spacecraft equipped with specific instruments for various scientific and technological missions. These include communications satellites like Starlink; space stations such as the ISS; scientific satellites like the Hubble; Earth observation satellites from companies like Planet Labs, Umbra, and HawkEye 360; GPS; miniature CubeSats for education and research; and military/defense satellites.

Loading next visibility...
Identifier
63329, 2025-057Y
Orbit
LEO
Country
Flag of USUS
Related business
Manufacturer
SpaceX/Seattle
Mission
Operational Commercial Communications
Bus & Motor
STARLINK V2MO, Unknown motor
Mass
575 kg wet, ~530 kg dry
Launch date (UTC)
2025-03-18 (1 year ago)
Launch vehicle
FALCON 9
Launch site
Air Force Eastern Test Range (AFETR)
Object type
Payload
Rocket body
Debris
Shape & HBR
Box + 2 Pan, 17.7 m
Radar Cross Section
36.964 m², Large (>1 m²)

Expand to show TLE details & history
Last TLE update: 5 hours ago

TLE from 5 hours ago
0 STARLINK-33674
1 63329U 25057Y   26126.86383448  .00013545  00000-0  50086-3 0  9993
2 63329  43.0025  62.3807 0000077 125.8016 234.2843 15.27578111 64679
Epoch: 2026-05-06T20:43Z
TLE epoch observation values (Epoch: 2026-05-06T20:43:55.299Z)
Latitude
0.00001°
Longitude
-113.31792°
Altitude
482.861 km
Speed
7.626 km/s
True Right ascension
04h 09m 31s
True Declination
0° 00' 00"
Sunlit
Object was in daylight at epoch
Visualization orbit readout
Latitude
Unknown
Longitude
Unknown
Altitude
Unknown
Speed
Unknown
Apparent Right ascension
Unknown
Apparent Declination
Unknown
Sunlit
N/A
Visualization observer readout
Local Sidereal Time
09:43:43
Azimuth
Unknown
Elevation
Unknown
Doppler factor
Unknown
Orbital elements
Apogee altitude
485.052 km
Perigee altitude
484.947 km
Semi-major axis
6,863.137 km
Eccentricity
0.00001
Inclination
43.0025°
RAAN
62.3807°
Arg. of periapsis
125.8016°
True anomaly
234.28358°
Mean anomaly
234.2843°
Eccentric anomaly
234.28394°
Mean motion
3.81733 °/min
Orbital period
94.31 mins
BSTAR
0.00050086
Loading maneuver chart data...
Computing Atmospheric mass density...
Loading historical data...
Loading historical data...
Loading historical data...
Loading historical data...
Loading historical data...
Loading historical data...
Loading historical data...

Documentation

Showing up to 5 results
|